Home   Weather   Kennebunk   Past weeks

Flag for USA Past Weather in Kennebunk, Maine, USA — Yesterday and Last 2 Weeks

Now
78 °F

Sunny.


Feels Like: 79 °F
Forecast: 59 / 81 °F
Wind: 9 mph from Northwest

Location: Sanford Municipal

Current Time: Aug 16, 2017 at 6:07:01 pm

Latest Report: Aug 16, 2017 at 4:56 pm


Visibility: 10 mi

Pressure: 29.94 "Hg

Humidity: 37%

Dew Point: 50 °F

Location of KennebunkLocation

Past Weather in Kennebunk — Graph

°F

Kennebunk Temperature Yesterday

Maximum temperature yesterday: 77 °F (at 1:56 pm)
Minimum temperature yesterday: 54 °F (at 3:56 am)
Average temperature yesterday: 68 °F

High & Low Weather Summary for the Past Weeks

 TemperatureHumidityPressure
High87 °F (Aug 10, 1:56 pm)100% (Aug 2, 2:36 am)30.27 "Hg (Aug 2, 2:36 am)
Low46 °F (Aug 14, 5:56 am)28% (Aug 11, 1:56 pm)29.81 "Hg (Aug 5, 7:34 pm)
Average68 °F79%30.03 "Hg
* Reported Aug 1 3:56 pm — Aug 16 3:56 pm, Kennebunk. Weather by CustomWeather, © 2017

Note: Actual official high and low records may vary slightly from our data, if they occured in-between our weather recording intervals... More about our weather records

Advertising

Kennebunk Weather History for the Previous 24 Hours

Scroll right to see more
 ConditionsComfort  
Time TempWeatherWind HumidityBarometerVisibility
3:56 pm
Wed, Aug 16
78 °FSunny.12 mph40%29.94 "Hg10 mi
2:56 pm79 °FSunny.15 mph41%29.94 "Hg10 mi
1:56 pm81 °FSunny.20 mph41%29.94 "Hg10 mi
12:56 pm81 °FScattered clouds.8 mph47%29.93 "Hg10 mi
11:56 am79 °FPassing clouds.7 mph52%29.94 "Hg10 mi
10:56 am77 °FSunny.9 mph54%29.95 "Hg10 mi
9:56 am76 °FSunny.6 mph58%29.94 "Hg10 mi
8:56 am73 °FSunny.9 mph64%29.93 "Hg10 mi
7:56 am71 °FSunny.7 mph73%29.93 "Hg10 mi
6:56 am66 °FSunny.3 mph87%29.92 "Hg10 mi
5:56 am55 °FScattered clouds.No wind96%29.91 "Hg9 mi
4:56 am57 °FFog.No wind100%29.89 "Hg5 mi
3:56 am59 °FFog.No wind96%29.88 "Hg4 mi
2:56 am64 °FPassing clouds.5 mph94%29.87 "Hg10 mi
1:56 am66 °FPassing clouds.6 mph90%29.86 "Hg10 mi
12:56 am67 °FClear.No wind93%29.86 "Hg10 mi
11:56 pm
Tue, Aug 15
69 °FClear.8 mph90%29.87 "Hg10 mi
10:56 pm69 °FClear.9 mph90%29.88 "Hg10 mi
9:56 pm69 °FClear.8 mph87%29.88 "Hg10 mi
8:56 pm71 °FClear.5 mph84%29.88 "Hg10 mi
7:56 pm72 °FClear.No wind84%29.88 "Hg10 mi
6:56 pm73 °FSunny.7 mph81%29.88 "Hg10 mi
Weather by CustomWeather, © 2017

See weather overviewHow to use our weather pages